Location: Banios
(43.0451°N, 0.2335°E)
Time: 13:04:34
(UTC+00:00)

Cosmos 2237 Rocket - Pass Details

Date: 25 January 2021
Orbit: 833 x 851 km, 71.0° (Epoch: 25 February)

Event Time Altitude Azimuth Distance (km) Brightness Sun altitude
Exits shadow 04:09:49 38° 114° (ESE) 1,260 3.4 -34.8°
Maximum altitude 04:10:08 39° 106° (ESE) 1,254 3.4 -34.8°
Drops below altitude 10° 04:15:21 10° 39° (NE) 2,480 5.1 -33.8°
Sets 04:17:57 0° 32° (NNE) 3,421 5.8 -33.3°
